TimeCDT,TemperatureF,Dew PointF,Humidity,Sea Level PressureIn,VisibilityMPH,Wind Direction,Wind SpeedMPH,Gust SpeedMPH,PrecipitationIn,Events,Conditions,WindDirDegrees,DateUTC
12:53 AM,64.0,54.0,70,29.98,10.0,Calm,Calm,-,N/A,,Clear,0,2012-09-01 05:53:00
1:53 AM,61.0,52.0,72,29.99,10.0,Calm,Calm,-,N/A,,Clear,0,2012-09-01 06:53:00
2:53 AM,60.1,53.1,78,29.98,10.0,Calm,Calm,-,N/A,,Clear,0,2012-09-01 07:53:00
4:53 AM,57.9,53.1,84,29.99,10.0,West,3.5,-,N/A,,Clear,280,2012-09-01 09:53:00
5:53 AM,57.0,51.1,81,29.99,10.0,Calm,Calm,-,N/A,,Clear,0,2012-09-01 10:53:00
8:53 AM,66.0,55.0,68,30.05,10.0,Calm,Calm,-,N/A,,Clear,0,2012-09-01 13:53:00
9:53 AM,75.0,57.0,53,30.04,10.0,Calm,Calm,-,N/A,,Clear,0,2012-09-01 14:53:00
10:53 AM,84.0,55.0,37,30.03,10.0,South,5.8,-,N/A,,Clear,170,2012-09-01 15:53:00
11:53 AM,88.0,55.0,32,30.02,10.0,South,8.1,-,N/A,,Clear,190,2012-09-01 16:53:00
12:53 PM,93.0,52.0,25,30.00,10.0,South,6.9,-,N/A,,Clear,170,2012-09-01 17:53:00
1:53 PM,95.0,48.9,21,29.97,10.0,South,8.1,-,N/A,,Clear,170,2012-09-01 18:53:00
2:53 PM,97.0,50.0,20,29.95,10.0,South,10.4,-,N/A,,Clear,190,2012-09-01 19:53:00
3:53 PM,97.0,48.0,19,29.93,10.0,Variable,5.8,16.1,N/A,,Clear,0,2012-09-01 20:53:00
4:53 PM,97.0,48.0,19,29.91,10.0,South,6.9,-,N/A,,Clear,170,2012-09-01 21:53:00
5:53 PM,97.0,46.9,18,29.90,10.0,SSE,11.5,-,N/A,,Clear,150,2012-09-01 22:53:00
6:53 PM,95.0,48.0,20,29.90,10.0,SSE,6.9,-,N/A,,Clear,160,2012-09-01 23:53:00
7:53 PM,90.0,48.9,24,29.90,10.0,SE,6.9,-,N/A,,Clear,140,2012-09-02 00:53:00
8:53 PM,81.0,50.0,34,29.91,10.0,ESE,4.6,-,N/A,,Clear,110,2012-09-02 01:53:00
9:53 PM,82.0,57.0,42,29.91,10.0,SE,12.7,-,N/A,,Clear,140,2012-09-02 02:53:00
10:53 PM,80.1,59.0,48,29.91,10.0,SE,11.5,-,N/A,,Clear,140,2012-09-02 03:53:00
11:53 PM,79.0,60.1,52,29.91,10.0,SE,12.7,-,N/A,,Clear,140,2012-09-02 04:53:00